Regional Weather Roundup
Issued by NWS

Home | Current Version | Previous Version | Graphics & Text | Print | Product List | Glossary On
Versions: 1 2 3 4 5 6 7 8 9 10 11 12 13 14 15 16 17 18 19 20 21 22 23 24 25 26 27 28 29 30 31 32 33 34 35 36 37 38 39 40 41 42 43 44 45 46 47 48 49 50
000
ASUS45 KCYS 282010
RWRWY

WYOMING REGIONAL WEATHER ROUNDUP
NATIONAL WEATHER SERVICE CHEYENNE WY
200 PM MDT SUN MAY 28 2017

NOTE:  "FAIR" INDICATES FEW OR NO CLOUDS BELOW 12,000 FEET
WITH NO SIGNIFICANT WEATHER AND/OR OBSTRUCTIONS TO VISIBILITY.

WYZ001-282100-
YELLOWSTONE NATIONAL PARK

CITY           SKY/WX    TMP DP  RH WIND       PRES   REMARKS
LK YELLOWSTONE   N/A     49  33  54 E7        30.39F
W YELLOWSTONE  NOT AVBL

$$
WYZ002>013-054>058-071-098>099-282100-
NORTHERN WYOMING

CITY           SKY/WX    TMP DP  RH WIND       PRES   REMARKS
JACKSON        MOSUNNY   63  30  29 S3        30.32F
CODY           FAIR      69  38  32 N10       30.25F
GREYBULL       FAIR      76  34  21 NW16G22   30.16F
WORLAND        FAIR      73  37  27 N7        30.19F
SHERIDAN       FAIR      71  42  35 NW20G29   30.17F
BUFFALO        FAIR      64  42  44 W12       30.22F
GILLETTE       FAIR      69  39  33 NW25G36   30.14F
HULETT         FAIR      68  41  37 W12G29    30.12F
NEWCASTLE      FAIR      66  34  30 NW22G29   30.13S

$$
WYZ014>020-022>026-101>103-282100-
CENTRAL WYOMING

CITY           SKY/WX    TMP DP  RH WIND       PRES   REMARKS
BIG PINEY      FAIR      63  27  25 E10       30.35F
PINEDALE       FAIR      61  25  25 SW3       30.35F
DUBOIS         FAIR      63  28  27 N10G21    30.31F
LANDER         FAIR      67  34  29 S6        30.25F
RIVERTON       FAIR      68  30  24 VRB3      30.25F
CASPER         PTSUNNY   60  44  55 NE23G30   30.23S
DOUGLAS        PTSUNNY   66  40  38 W23G33    30.21S

$$
WYZ021-027>030-104>119-282100-
SOUTHERN WYOMING

CITY           SKY/WX    TMP DP  RH WIND       PRES   REMARKS
EVANSTON       FAIR      62  30  29 NW7       30.34F
KEMMERER         N/A     61  27  27 N5        30.36F
FORT BRIDGER   FAIR      64  26  23 N3        30.37F
ROCK SPRINGS   FAIR      64  26  23 W10G21    30.33F
DIXON            N/A     65  29  25 S5        30.34F
RAWLINS        FAIR      65  25  22 SW9G18    30.32F
SARATOGA       FAIR      59  28  31 CALM      30.34F
LARAMIE        PTSUNNY   61  30  31 N12G21    30.30F
CHEYENNE       PTSUNNY   64  30  27 NW13G20   30.25F
TORRINGTON     FAIR      71  34  25 NW10G21   30.15F
PINE BLUFFS    MOCLDY    68  34  28 N14G20    30.22F

$$



USA.gov is the U.S. government's official web portal to all federal, state and local government web resources and services.